Regional Weather Roundup
Issued by NWS Wakefield, VA

Home | Current Version | Previous Version | Text Only | Print | Product List | Glossary On
Versions: 1 2 3 4 5 6 7 8 9 10 11 12 13 14 15 16 17 18 19 20 21 22 23 24 25 26 27 28
000
ASUS41 KAKQ 260515
RWRAKQ

REGIONAL WEATHER ROUNDUP
NATIONAL WEATHER SERVICE WAKEFIELD VA
100 AM EDT MON JUN 26 2017

Note: "fair" indicates few or no clouds below 12,000 feet with no
significant weather and/or obstructions to visibility. * = Denotes
station may not report precipitation (e.g., rain,snow,etc.),
thunder or fog.

VAZ042-051-052>054-056-260600-
NORTHERN VIRGINIA

CITY           SKY/WX    TMP DP  RH WIND       PRES   REMARKS
WASH NATIONAL  PTCLDY    75  45  34 W7        30.05R
DULLES         PTCLDY    63  48  58 CALM      30.06S
FORT BELVOIR   CLEAR     59  52  78 CALM      30.05R
QUANTICO       CLEAR     66  58  75 NW8       30.06S
FREDERICKSBRG* CLEAR     63  55  74 CALM      30.06S
STAFFORD*      CLEAR     57  56  94 CALM      30.10S
WARRENTON      CLEAR     56  51  82 CALM      30.06S
CULPEPER*      CLEAR     60  51  71 CALM      30.08S
MANASSAS*      CLEAR     60  54  80 CALM      30.06S
LEESBURG*      CLEAR    N/A N/A N/A W7        30.07S
WINCHESTER     CLOUDY    64  46  52 W7        30.07F
FRONT ROYAL*   CLOUDY    64  50  59 S6        30.07F
LURAY*         CLEAR     61  52  72 S3        30.10F
$$

VAZ048-049-060>072-079>083-260600-
CENTRAL AND SOUTH CENTRAL VIRGINIA

CITY           SKY/WX    TMP DP  RH WIND       PRES   REMARKS
RICHMOND       CLEAR     69  61  75 NW3       30.06S
CHESTERFIELD*  NOT AVBL
PETERSBURG*    CLEAR     67  57  68 CALM      30.08R
HANOVER        CLEAR     65  59  81 CALM      30.08R
TAPPAHANNOCK*  CLEAR     64  61  90 CALM      30.06S
QUINTON*       FAIR      63  63 100 CALM      30.05S
CHARLOTTSVILLE CLEAR     65  49  56 SW5       30.09F
GORDONSVILLE*  CLEAR     64  50  60 CALM      30.08S
ORANGE*        CLEAR     63  46  55 W6        30.08S
LOUISA*        CLEAR     55  54  94 CALM      30.07S
BUMPASS*       FAIR      60  56  87 NW5       30.08S
FARMVILLE*     CLEAR     60  55  85 CALM      30.09R
CREWE*         FAIR      63  55  76 NW5       30.09R
FORT PICKETT*  FAIR      63  58  83 NW7       30.09R
CHASE CITY*    FAIR      64  63  95 CALM      30.10S
CLARKSVILLE*   FAIR      63  63 100 CALM      30.10S
SOUTH HILL*    CLEAR     68  63  84 CALM      30.15R
LAWRENCEVILLE* FAIR      63  60  90 CALM      30.09R
EMPORIA*       CLEAR     66  59  77 W3        30.09R
$$

VAZ088>098-260600-
SOUTHEAST VIRGINIA

CITY           SKY/WX    TMP DP  RH WIND       PRES   REMARKS
NORFOLK        PTCLDY    78  61  55 W3        30.04S
VIRGINIA BEACH PTCLDY    72  61  68 NW7       30.03S
NORFOLK NAVAL  PTCLDY    77  62  59 W6        30.05S
WEST POINT*    CLEAR     64  61  91 CALM      30.07R
SALUDA*        FAIR      69  64  84 CALM      30.04S
NEWPORT NEWS   PTCLDY    67  63  87 CALM      30.05R
LANGLEY AFB    MOCLDY    71  64  76 W5        30.04S
FORT EUSTIS    PTCLDY    73  62  68 W3        30.03R
WILLIAMSBURG*  CLEAR     72  63  73 CALM      30.06S
HR EXEC AP*    FAIR      64  61  88 CALM      30.03S
FRANKLIN*      CLEAR     66  63  88 CALM      30.06S
US460-WAKEFLD  CLEAR     65  62  90 CALM      30.05S
$$

VAZ020-022-025-037-045-260600-
WEST CENTRAL AND SOUTHWEST VIRGINIA

CITY           SKY/WX    TMP DP  RH WIND       PRES   REMARKS
STAUNTON*      CLEAR     55  50  82 CALM      30.14S
WAYNESBORO*    CLEAR     57  51  79 SW3       30.13S
HOT SPRINGS VA CLEAR     57  36  44 W14G23    30.20F
LYNCHBURG      CLEAR     58  52  80 CALM      30.13S
DANVILLE       CLEAR     60  60 100 W3        30.13R
SOUTH BOSTON*  FAIR      63  55  75 CALM      30.11S
MARTINSVILLE   CLEAR     55  54  96 CALM      30.18S
ROANOKE        CLEAR     61  50  67 CALM      30.16F
BLACKSBURG     CLEAR     56  48  75 CALM      30.22S
DUBLIN*        CLEAR     56  45  66 W5        30.20F
MARION*        CLEAR     52  49  87 CALM      30.24F
HILLSVILLE*    CLEAR     58  43  56 CALM      30.21S
RICHLANDS*     FAIR      59  47  62 SW3       30.23S
WISE*          CLOUDY    57  46  67 CALM      30.24F
ABINGDON*      CLEAR     57  52  83 CALM      30.22S
$$

MDZ021>025-VAZ099-100-260600-
SOUTHERN MARYLAND AND THE DELMARVA PENINSULA

CITY           SKY/WX    TMP DP  RH WIND       PRES   REMARKS
PATUXENT RIVER MOCLDY    72  52  49 W7        30.04R
BAY BRIDGE APT PTCLDY    73  52  46 NW9       30.03S
LEONARDTOWN    PTCLDY    64  55  72 W3        30.06S
DOVER          CLEAR     74  54  50 W10       30.00R
GEORGETOWN     CLOUDY    74  56  53 CALM      30.03R
EASTON         PTCLDY    73  52  47 NW5       30.07R
CAMBRIDGE      MOCLDY    72  54  53 W3        30.03S
SALISBURY      MOCLDY    67  63  87 CALM      30.03S
OCEAN CITY     CLOUDY    71  59  65 W6        30.03R
WALLOPS ISLAND CLEAR     72  60  66 CALM      30.03R
ACCOMACK*      CLOUDY    72  63  72 N8        30.03S
$$

NCZ012>017-030>032-260600-
NORTH CENTRAL AND EASTERN NORTH CAROLINA

CITY           SKY/WX    TMP DP  RH WIND       PRES   REMARKS
ROANOKE RAPIDS FAIR      68  63  83 CALM      30.08R
RALEIGH        CLOUDY    68  64  87 CALM      30.11S
ELIZABETH CITY CLOUDY    73  65  75 NW7       30.05R
AHOSKIE*         N/A     68  65  89 CALM      30.07S
EDENTON*       CLOUDY    76  64  66 CALM      30.06R
CURRITUCK*     CLOUDY    75  66  74 CALM      30.05S
KILL DEVIL HLS CLOUDY    79  66  65 NW7       30.03R
MANTEO         CLOUDY    79  64  60 NW7       30.04S
CAPE HATTERAS  CLOUDY    78  73  84 SW5       30.04R
TARBORO*       NOT AVBL
GOLDSBORO      CLOUDY    75  67  76 CALM      30.06S
WASHINGTON     CLOUDY   N/A N/A N/A CALM      30.07R
GREENVILLE     CLEAR     73  64  73 CALM      30.08S
NEW BERN       CLOUDY    74  73  97 CALM      30.08R
WILMINGTON     CLOUDY    73  71  93 N3        30.06F
$$

VAZ048-260600-
ELSEWHERE

CITY           SKY/WX    TMP DP  RH WIND       PRES   REMARKS
HARRISBURG PA  PTCLDY    68  50  52 NW7       30.02S
BALTIMORE      CLEAR     64  51  62 W6        30.03S
ANNAPOLIS      CLEAR     69  54  58 NW5       30.03R
ANDREWS AFB    CLEAR     71  46  40 W7        30.04S
PHILADELPHIA   PTCLDY    74  47  38 W9        30.00S
HENDERSON NC   CLOUDY    66  56  70 NW6       30.11R
GREENSBORO     CLEAR     66  59  78 NW5       30.14S
ROCKY MOUNT    CLOUDY    67  66  97 CALM      30.08S
$$

VAZ100-260600-
MARINE

STATION/POSITION TIME  TEMP    WIND        PRES    WAVE   SWELL
                       AIR SEA DIR/SP/G            HT/PER HT/PER
                 (UTC) (F)     (DEG/KT/KT) (MB)    (FT/S) (FT/S)
BRANDYWINE LGT   0448   74     290/ 10/ 10 1016.7R
CAPE MAY NJ      0448   70 65  220/  2/  3 1016.1R
LEWES DE         0442   76 73  240/  4/  5 1016.4R
15NM E FENWICK I 0450   73 68  320/  8/ 10 1016.7R   2/ 6   2/ 6
OCEAN-CITY-INLET 0442   72 64   30/  1/  2 1016.9R
WACHAPREAGUE VA  0442   73 80  260/  2/  4 1016.6F
THOMAS POINT MD  0500   74 78  290/ 10/ 13   N/A
GOOSES REEF MD   0500   78 79  340/ 10/ 12 1018.0    1/ 2
COVE POINT MD    0442   75     320/  6/  8 1017.8R
SOLOMONS ISLAND  0442   75 79  290/  3/  5   N/A
BISHOPS HEAD MD  0442   74 81  320/  4/  5 1017.1R
PINEY POINT MD   0442          350/  9/ 11   N/A
POTOMAC MD       0500   77 79  350/  6/  8 1016.3    1
CAMBRIDGE MD     0442   77 82              1017.5R
LEWISETTA VA     0442   75 80  300/  4/  5 1017.0S
RAPPAHANNOCK LGT 0442          330/ 15/ 17 1017.4F
STINGRAY PT      0450   78     340/  8/ 10 1017.0S
YORK RVR RNG VA  0442   76     310/ 10/ 12 1017.5R
YORKTOWN VA      0442   74 79  270/  6/  8 1017.0R
JAMESTOWN VA     0500   77 83  310/ 10/ 14   N/A     0
DOMINION TERM VA 0442   77     300/  9/ 11 1017.3F
KIPTOPEKE VA     0442      76  300/  6/  8   N/A
CHES BAY BRIDGE  0442   77 74  300/  6/  7 1017.0F
CAPE HENRY VA    0442   76     290/  7/  8   N/A
WILLOUBY STN VA  0442   77     290/  9/ 10 1017.1S
S CRANEY ISL VA  0442   75     290/  5/  8 1017.0F
CAPE HENRY BUOY  0500      74                N/A     2/ 8
1ST LANDING BUOY 0500   77 72              1017.0    1
CAPE CHARLES BUO 0451      73                N/A     1/ 9
64NM E OF VA BCH 0450   74 74  250/  2/  2 1017.0F   2/ 8   2/ 8
DUCK PIER NC     0442   78 66  320/ 13/ 18 1016.3F
44100 DUCK FRF   0405      72                N/A     2/ 8
OREGON INLET NC  0442   80 80  290/  6/ 10 1016.9R
HATTERAS NC      0442   77 79  250/  6/  8 1017.2R
DIAMOND SHLS NC  0450   78 80  240/ 14/ 16 1017.1S   3/ 8   2/ 8
CAPE LOOKOUT NC  0400   78     250/  8/ 10 1017.5R
$$




USA.gov is the U.S. government's official web portal to all federal, state and local government web resources and services.